Regional Weather Roundup
Issued by NWS

Home | Current Version | Previous Version | Graphics & Text | Print | Product List | Glossary On
Versions: 1 2 3 4 5 6 7 8 9 10 11 12 13 14 15 16 17 18 19 20 21 22 23 24 25 26 27
000
ASUS45 KBOI 151910
RWRID

IDAHO REGIONAL WEATHER ROUNDUP
NATIONAL WEATHER SERVICE BOISE ID
1200 PM MST FRI DEC 15 2017

NOTE: "FAIR" INDICATES FEW OR NO CLOUDS BELOW 12000 FEET
WITH NO SIGNIFICANT WEATHER AND/OR OBSTRUCTIONS TO VISIBILITY

IDZ012-014-152000-
SOUTHWEST IDAHO


CITY           SKY/WX    TMP DP  RH WIND       PRES   REMARKS
BOISE          CLOUDY    26  21  81 S6        30.28F WCI  19
CALDWELL       CLOUDY    30  25  81 SE10      30.29F WCI  21
MOUNTAIN HOME  CLOUDY    26  26 100 SE10      30.27F WCI  17
$$

IDZ016-017-152000-
SOUTHCENTRAL IDAHO


CITY           SKY/WX    TMP DP  RH WIND       PRES   REMARKS
BURLEY         MOSUNNY   30  26  85 CALM      30.19F
JEROME         PTSUNNY   30  26  85 NE7       30.23F FOG     WCI  23
TWIN FALLS     FOG       24  22  91 SE3       30.22F VSB 1/2
$$

IDZ019>023-152000-
SOUTHEAST IDAHO


CITY           SKY/WX    TMP DP  RH WIND       PRES   REMARKS
IDAHO FALLS    CLOUDY    24  22  91 CALM      30.25F
POCATELLO      CLOUDY    22  20  92 NE6       30.23F FOG     WCI  14
REXBURG        CLOUDY    24  21  88 NE3       30.20F
$$

IDZ006-010-011-018-031-032-152000-
CENTRAL IDAHO MOUNTAINS


CITY           SKY/WX    TMP DP  RH WIND       PRES   REMARKS
MCCALL         CLOUDY    20  16  84 SW5       30.14F WCI  13
HAILEY         MOSUNNY   28  21  74 CALM      30.20F
STANLEY          N/A     12   9  87 CALM      30.17F
SALMON         CLOUDY    28  21  75 E7        30.20F WCI  21
CHALLIS        CLOUDY    23  18  81 N3        30.17F
$$

IDZ002-004-006-007-026-152000-
NORTHERN IDAHO


CITY           SKY/WX    TMP DP  RH WIND       PRES   REMARKS
LEWISTON       CLOUDY    31  30  96 W3        30.15F
LOWELL           N/A     36  30  79 NE3       30.16F
COEUR D`ALENE  HVY SNOW  30  28  92 W5        30.11S VSB 1/4 WCI  25
MULLAN PASS    LGT SNOW  27  22  81 SW9G20    29.93F WCI  18
$$




USA.gov is the U.S. government's official web portal to all federal, state and local government web resources and services.